Location: Unspecified
(0.0000°N, 0.0000°E)
Time: 12:53:47
(UTC+00:00)

Vanguard 1 - All Passes

Search period start: 03 September 2015 00:00
Search period end: 13 September 2015 00:00
Orbit: 649 x 3835 km, 34.2° (Epoch: 02 September)

Date Brightness Start Highest point End Pass type
(mag) Time Alt. Az. Time Alt. Az. Time Alt. Az.
03 Sep - 00:58:28 10° NNW 01:08:18 32° NE 01:24:43 10° E visible
03 Sep - 03:17:39 10° NW 03:33:02 88° NE 03:56:51 10° SE visible
03 Sep - 05:42:23 10° W 06:01:37 43° SSW 06:22:35 10° SE daylight
03 Sep - 08:18:01 10° WSW 08:33:44 20° SSW 08:46:09 10° SSE daylight
03 Sep - 10:57:23 10° SSW 11:05:42 15° S 11:12:19 10° SE daylight
03 Sep - 13:23:18 10° SSW 13:32:50 28° SSE 13:38:55 10° E daylight
03 Sep - 15:47:13 10° WSW 15:54:51 63° NW 15:59:39 10° NE daylight
04 Sep - 01:18:54 10° NNW 01:29:46 43° NE 01:48:30 10° ESE visible
04 Sep - 03:39:01 10° WNW 03:54:54 76° SW 04:18:41 10° SE visible
04 Sep - 06:05:34 10° W 06:24:29 35° SSW 06:43:52 10° SSE daylight
04 Sep - 08:43:36 10° SW 08:57:23 18° S 09:08:12 10° SSE daylight
04 Sep - 11:19:17 10° SSW 11:28:46 17° S 11:35:57 10° SE daylight
04 Sep - 13:44:21 10° SW 13:54:47 39° SSE 14:00:55 10° E daylight
04 Sep - 16:09:19 10° WSW 16:15:49 35° NW 16:20:14 10° NNE daylight
04 Sep - 23:24:08 10° NNE 23:27:51 13° NE 23:33:31 10° ENE visible
05 Sep - 01:39:32 10° NW 01:51:10 57° NE 02:11:38 10° ESE visible
05 Sep - 04:00:42 10° WNW 04:17:01 62° SSW 04:40:17 10° SE visible
05 Sep - 06:29:22 10° WSW 06:47:40 29° SSW 07:05:17 10° SSE daylight
05 Sep - 09:08:42 10° SW 09:21:06 17° S 09:30:54 10° SSE daylight
05 Sep - 11:40:43 10° SSW 11:51:34 21° SSE 11:59:12 10° ESE daylight
05 Sep - 14:05:38 10° SW 14:16:28 58° SSE 14:22:29 10° ENE daylight
05 Sep - 16:32:05 10° W 16:36:48 20° NW 16:40:19 10° N daylight
05 Sep - 23:43:08 10° N 23:49:30 20° NE 23:59:36 10° E visible
06 Sep - 02:00:23 10° NW 02:12:36 73° NE 02:34:13 10° ESE visible
06 Sep - 04:22:44 10° WNW 04:39:24 51° SSW 05:01:47 10° SE visible
06 Sep - 06:53:49 10° WSW 07:11:08 24° SSW 07:26:56 10° SSE daylight
06 Sep - 09:32:46 10° SSW 09:44:44 17° S 09:54:14 10° SE daylight
06 Sep - 12:01:58 10° SSW 12:14:08 27° SSE 12:21:57 10° ESE daylight
06 Sep - 14:27:10 10° SW 14:37:51 87° SE 14:43:42 10° NE daylight
06 Sep - 16:56:55 10° NW 16:57:56 10° NW 16:58:33 10° NNW daylight
07 Sep - 00:03:02 10° NNW 00:10:55 29° NE 00:24:13 10° E visible
07 Sep - 02:21:26 10° NW 02:34:10 90° SW 02:56:24 10° SE visible
07 Sep - 04:45:14 10° W 05:02:04 41° SSW 05:23:13 10° SE visible
07 Sep - 07:18:45 10° SW 07:34:51 21° SSW 07:49:00 10° SSE daylight
07 Sep - 09:55:44 10° SSW 10:08:13 19° S 10:17:51 10° SE daylight
07 Sep - 12:23:14 10° SW 12:36:25 36° SSE 12:44:12 10° E daylight
07 Sep - 14:49:04 10° WSW 14:58:59 61° NW 15:04:35 10° NE daylight
08 Sep - 00:23:19 10° NNW 00:32:10 40° NE 00:47:57 10° ESE visible
08 Sep - 02:42:45 10° WNW 02:55:57 73° SW 03:18:17 10° SE visible
08 Sep - 05:08:15 10° W 05:25:03 34° SSW 05:44:43 10° SSE visible
08 Sep - 07:43:44 10° SW 07:58:44 19° S 08:11:38 10° SSE daylight
08 Sep - 10:17:54 10° SSW 10:31:27 22° SSE 10:41:19 10° ESE daylight
08 Sep - 12:44:34 10° SW 12:58:26 49° SSE 13:06:03 10° ENE daylight
08 Sep - 15:11:24 10° WSW 15:19:57 37° NW 15:25:09 10° NNE daylight
09 Sep - 00:43:52 10° NW 00:53:21 55° NE 01:11:00 10° ESE visible
09 Sep - 03:04:23 10° WNW 03:18:01 58° SSW 03:39:57 10° SE visible
09 Sep - 05:31:50 10° WSW 05:48:21 28° SSW 06:06:23 10° SSE visible
09 Sep - 08:08:15 10° SW 08:22:40 19° S 08:34:55 10° SE daylight
09 Sep - 10:39:38 10° SSW 10:54:24 27° SSE 11:04:24 10° ESE daylight
09 Sep - 13:06:05 10° SW 13:20:08 68° SSE 13:27:31 10° ENE daylight
09 Sep - 15:34:22 10° W 15:40:55 23° NW 15:45:16 10° N daylight
09 Sep - 22:48:19 10° N 22:52:49 16° NE 22:59:37 10° ENE night (unlit)
10 Sep - 01:04:40 10° NW 01:14:37 74° NE 01:33:33 10° ESE visible
10 Sep - 03:26:22 10° W 03:40:22 47° SSW 04:01:31 10° SE visible
10 Sep - 05:55:58 10° WSW 06:11:56 24° SSW 06:28:25 10° SSE daylight
10 Sep - 08:31:53 10° SW 08:46:30 20° S 08:58:39 10° SE daylight
10 Sep - 11:01:08 10° SW 11:17:03 34° SSE 11:27:00 10° E daylight
10 Sep - 13:27:52 10° SW 13:41:34 87° NW 13:48:39 10° NE daylight
10 Sep - 15:58:35 10° WNW 16:01:59 13° NW 16:04:26 10° NNW daylight
10 Sep - 23:07:52 10° N 23:14:04 25° NE 23:24:13 10° E night (unlit)
11 Sep - 01:25:41 10° NW 01:36:04 86° SW 01:55:41 10° SE visible
11 Sep - 03:48:47 10° W 04:03:03 38° SSW 04:23:03 10° SE visible
11 Sep - 06:20:27 10° SW 06:35:47 21° S 06:50:58 10° SE daylight
11 Sep - 08:54:41 10° SSW 09:10:08 22° S 09:22:27 10° ESE daylight
11 Sep - 11:22:36 10° SW 11:39:26 44° SSE 11:49:09 10° E daylight
11 Sep - 13:49:59 10° WSW 14:02:44 60° NW 14:09:30 10° NE daylight
11 Sep - 23:28:01 10° NNW 23:35:09 37° NE 23:47:47 10° ESE visible
12 Sep - 01:46:59 10° WNW 01:57:46 68° SSW 02:17:32 10° SE visible
12 Sep - 04:11:42 10° WSW 04:26:02 31° SSW 04:44:41 10° SE visible
12 Sep - 06:44:50 10° SW 06:59:47 20° S 07:14:11 10° SE daylight
12 Sep - 09:16:50 10° SSW 09:33:29 26° SSE 09:45:57 10° ESE daylight
12 Sep - 11:44:08 10° SW 12:01:30 57° SSE 12:10:54 10° ENE daylight
12 Sep - 14:12:33 10° WSW 14:23:44 40° NW 14:30:03 10° NNE daylight
